Location: La Sioule Rivi�re
(46.3664°N, 3.3197°E)
Time: 13:08:46
(UTC+00:00)

SeaSat 1 - Pass Details

Date: 29 October 2020
Orbit: 744 x 747 km, 108.0° (Epoch: 23 November)

Event Time Altitude Azimuth Distance (km) Brightness Sun altitude
Exits shadow 19:40:26 42° 307° (NW) 1,057 3.5 -32.2°
Drops below altitude 10° 19:43:50 10° 326° (NNW) 2,273 5.5 -32.8°
Sets 19:46:08 0° 330° (NNW) 3,202 6.3 -33.1°
